Location: Unspecified
(54.1780°N, 0.0000°E)
Time: 08:19:27
(UTC+00:00)

Altair - Pass Details

Date: 23 June 2019
Orbit: 1501 x 1683 km, 47.2° (Epoch: 17 July)

Event Time Altitude Azimuth Distance (km) Brightness Sun altitude
Rises 00:37:28 0° 278° (W) 4,816 10.1 -12.0°
Reaches altitude 10° 00:40:43 10° 273° (W) 3,853 9.5 -11.9°
Maximum altitude 00:49:51 45° 205° (SSW) 2,152 7.8 -11.7°
Drops below altitude 10° 00:59:12 10° 138° (SE) 3,937 9.3 -11.4°
Sets 01:02:33 0° 132° (SE) 4,928 9.9 -11.3°
